Location: *
(45.9500°N, 9.0833°E)
Time: 00:19:41
(UTC+00:00)

Tiros 1 despin weight - Pass Details

Date: 01 July 2021
Orbit: 593 x 642 km, 48.2° (Epoch: 02 August)

Event Time Altitude Azimuth Distance (km) Brightness Sun altitude
Rises 00:12:17 0° 212° (SSW) 2,866 - -20.2°
Reaches altitude 10° 00:14:51 10° 200° (SSW) 1,956 - -20.1°
Maximum altitude 00:18:38 27° 143° (SE) 1,167 - -20.0°
Exits shadow 00:19:11 26° 130° (SE) 1,188 ? -20.0°
Drops below altitude 10° 00:22:23 10° 85° (E) 1,941 ? -19.8°
Sets 00:24:55 0° 74° (ENE) 2,840 ? -19.7°
